Regional Weather Roundup
Issued by NWS

Home | Current Version | Previous Version | Graphics & Text | Print | Product List | Glossary On
Versions: 1 2 3 4 5 6 7 8 9 10 11 12 13 14 15 16 17 18 19 20 21 22 23 24 25 26 27 28 29 30 31 32 33 34 35 36 37 38 39 40 41 42 43 44 45 46 47 48 49 50
000
ASUS43 KOAX 050702
RWRNE

WEATHER ROUNDUP FOR NEBRASKA
NATIONAL WEATHER SERVICE OMAHA NE
200 AM CDT SAT SEP 05 2015

NOTES: SATELLITE DATA IS BEING USED TO AUGMENT CLOUD COVER ABOVE
       12000 FEET.
       "FAIR" INDICATES FEW OR NO CLOUDS BELOW 12,000 FEET WITH NO
       SIGNIFICANT WEATHER AND/OR OBSTRUCTIONS TO VISIBILITY.

  * THESE STATIONS DO NOT REPORT WEATHER SUCH AS RAIN...SNOW OR FOG.

NEZ001>004-019>022-054>056-050800-
NEBRASKA PANHANDLE

CITY           SKY/WX    TMP DP  RH WIND       PRES   REMARKS
SCOTTSBLUFF    CLOUDY    69  54  58 SE9       29.87S
ALLIANCE       CLOUDY    71  53  52 S9        29.87R
CHADRON        CLOUDY    73  49  42 CALM      29.82F
KIMBALL        CLOUDY    67  57  71 S7        29.93R
SIDNEY         CLOUDY    68  61  78 NW5       29.88F
$$

NEZ057>060-069>072-079>082-050800-
SOUTHWEST NEBRASKA

CITY           SKY/WX    TMP DP  RH WIND       PRES   REMARKS
NORTH PLATTE   CLOUDY    78  58  49 SE10      29.84F
IMPERIAL       CLOUDY    80  55  42 S16       29.84S
LEXINGTON      PTCLDY    78  63  58 S14       29.86S
MC COOK        PTCLDY    81  58  45 S17       29.84S
OGALLALA       CLOUDY    72  59  62 CALM      29.84S
$$

NEZ005>010-023>029-035>040-094-050800-
NORTH CENTRAL NEBRASKA

CITY           SKY/WX    TMP DP  RH WIND       PRES   REMARKS
VALENTINE      CLEAR     73  61  65 S8        29.82S
AINSWORTH      PTCLDY    71  63  75 S8        29.83S
BROKEN BOW     PTCLDY    77  63  61 SE7       29.86S
O`NEILL        PTCLDY    74  67  80 S7        29.84S
ORD            CLEAR     76  64  66 S8        29.85R
THEDFORD       PTCLDY    76  61  59 SE6       29.85F
$$

NEZ041-046>049-061>064-073>077-083>087-050800-
SOUTH CENTRAL NEBRASKA

CITY           SKY/WX    TMP DP  RH WIND       PRES   REMARKS
GRAND ISLAND   CLEAR     76  65  68 S13       29.89R
AURORA         PTCLDY    75  67  76 S12       29.89S
HASTINGS       CLEAR     76  64  66 S8        29.90R
HEBRON         CLEAR     76  65  69 S9        29.92R
HOLDREGE       CLEAR     76  60  58 S12       29.88S
KEARNEY *      CLEAR     73  61  64 S10       29.88S
YORK           PTCLDY    75  68  78 S9        29.91R
$$

NEZ011>018-030>034-042>045-050800-
NORTHEAST NEBRASKA

CITY           SKY/WX    TMP DP  RH WIND       PRES   REMARKS
NORFOLK        PTCLDY    75  67  76 S14       29.86S
ALBION         PTCLDY    74  65  73 SE8       29.87S
BLAIR          FAIR      77  67  71 S15G21    29.92S
COLUMBUS *     PTCLDY    75  64  69 S8        29.88S
FREMONT        MOCLDY    77  67  71 SE13G18   29.90S
TEKAMAH        MOCLDY    74  69  85 S7        29.90S
$$

NEZ050>053-065>068-078-088>093-050800-
SOUTHEAST NEBRASKA

CITY           SKY/WX    TMP DP  RH WIND       PRES   REMARKS
LINCOLN        PTCLDY    77  69  76 S12       29.91S
OMAHA EPPLEY   MOCLDY    78  69  73 S15       29.92S
BEATRICE       PTCLDY    76  69  78 S9        29.93R
FALLS CITY     CLEAR     76  69  79 S9        29.94S
NEBRASKA CITY  CLEAR     74  66  76 S13       29.94S
PLATTSMOUTH    CLEAR     75  66  74 SE10      29.93S
$$

NEZ044-045-051>053-067-050800-
OMAHA AREA

CITY           SKY/WX    TMP DP  RH WIND       PRES   REMARKS
EPPLEY FIELD   MOCLDY    78  69  73 S15       29.92S
BLAIR          PTCLDY    77  67  71 S15G21    29.92S
FREMONT        MOCLDY    77  67  71 SE13G18   29.90S
MILLARD        PTCLDY    77  69  77 SE8       29.92S
OFFUTT AFB     PTCLDY    76  69  79 SE9       29.92S
PLATTSMOUTH    CLEAR     75  66  74 SE10      29.93S
WAHOO          FAIR      74  69  83 SE9       29.91R
$$


USA.gov is the U.S. government's official web portal to all federal, state and local government web resources and services.